Hourly Weather Roundup
Issued by NWS Central Illinois

Home | Current Version | Previous Version | Text Only | Print | Product List | Glossary On
Versions: 1 2 3 4 5 6 7 8 9 10 11 12 13 14 15 16 17 18 19 20 21 22 23 24 25 26 27 28 29 30 31 32 33 34 35 36 37 38 39 40 41 42 43 44 45 46 47 48 49 50
000
NZUS43 KILX 101210
HWRILX

Area Weather Roundup
National Weather Service Lincoln IL
600 AM CST SUN DEC 10 2017

NOTE:  "FAIR" indicates few or no clouds below 12,000 feet, with
       no sigificant weather and/or obstructions to visibility.


CITY           SKY/WX    TMP DP  RH WIND       PRES   REMARKS
Bloomington    CLOUDY    23  17  78 SW18      30.00F WCI   9
6HR MIN TEMP:  20; 6HR MAX TEMP:  23;

Champaign      CLOUDY    24  18  77 SW16      30.05F WCI  11
6HR MIN TEMP:  16; 6HR MAX TEMP:  24;

Danville       CLOUDY    22  17  79 S9        30.03S WCI  12
6HR MIN TEMP:  16; 6HR MAX TEMP:  22;

Decatur        CLOUDY    24  16  71 SW13      30.06F WCI  12
6HR MIN TEMP:  19; 6HR MAX TEMP:  24;

Effingham      CLOUDY    24  19  82 S8        30.14S WCI  14
6HR MIN TEMP:  19; 6HR MAX TEMP:  24;

Flora          CLOUDY    24  18  79 S9        30.15F WCI  14
6HR MIN TEMP:  22; 6HR MAX TEMP:  26;

Galesburg      CLEAR     24  18  77 S15       29.94F WCI  11
6HR MIN TEMP:  19; 6HR MAX TEMP:  25;

Jacksonville   CLEAR     23  15  72 S10       30.06F WCI  12
6HR MIN TEMP:  19; 6HR MAX TEMP:  23;

Lacon          MOCLDY    25  16  68 SW13      29.97F WCI  13
6HR MIN TEMP:  21; 6HR MAX TEMP:  25;

Lawrenceville  CLOUDY    23  17  78 SW8       30.17S WCI  14
6HR MIN TEMP:  20; 6HR MAX TEMP:  23;

Litchfield     CLEAR     21  17  83 S9        30.09S WCI  11
6HR MIN TEMP:  20; 6HR MAX TEMP:  23;

$$


CITY           SKY/WX    TMP DP  RH WIND       PRES   REMARKS
Lincoln        CLOUDY    26  17  70 SW6       30.05R WCI  19
6HR MIN TEMP:  22; 6HR MAX TEMP:  26;

Macomb         CLEAR     23  17  77 SW12      30.00F WCI  12
6HR MIN TEMP:  19; 6HR MAX TEMP:  23;

Mattoon        CLOUDY    23  18  81 SW9       30.09S WCI  13
6HR MIN TEMP:  20; 6HR MAX TEMP:  23;

Mt Carmel AP   CLOUDY    22  17  81 SW6       30.17S WCI  15
6HR MIN TEMP:  20; 6HR MAX TEMP:  23;

Olney-Noble AP CLOUDY    23  17  78 S5        30.16S WCI  16
Paris AP       CLOUDY    23  19  83 S9        30.10S WCI  13
6HR MIN TEMP:  18; 6HR MAX TEMP:  23;

Peoria         CLOUDY    24  16  71 SW15      30.00F WCI  11
6HR MIN TEMP:  19; 6HR MAX TEMP:  24;

Pontiac        CLOUDY    25  17  71 SW10      30.00S WCI  15
6HR MIN TEMP:  17; 6HR MAX TEMP:  25;

Rantoul        CLOUDY    26  19  76 SW12G18   30.04S WCI  15
6HR MIN TEMP:  21; 6HR MAX TEMP:  26;

Robinson       CLOUDY    23  18  80 SW8       30.15F WCI  14
6HR MIN TEMP:  18; 6HR MAX TEMP:  23;

Springfield    CLOUDY    24  16  71 SW8       30.08R WCI  15
6HR MIN TEMP:  18; 6HR MAX TEMP:  24;

Taylorville    CLOUDY    23  16  75 S13       30.08S WCI  11
6HR MIN TEMP:  19; 6HR MAX TEMP:  23;

$$

...REGIONAL REPORTS...


CITY           SKY/WX    TMP DP  RH WIND       PRES   REMARKS
Chicago O`Hare CLOUDY    24  15  68 SW12      29.93F WCI  13
Kankakee       CLOUDY    24  16  73 SW9       30.01F WCI  14
Moline         CLEAR     26  16  65 SW13G21   29.89F WCI  15
Mount Sterling CLEAR     23  15  72 S12       30.00F WCI  12
Mount Vernon   CLOUDY    20  17  88 SW8       30.17F WCI  10
Pittsfield     CLEAR     23  17  77 S9        30.05F WCI  13
Quincy         CLEAR     22  16  78 S14       30.00F WCI   9
Rockford       PTCLDY    21  14  74 S7        29.93F WCI  12
$$


CITY           SKY/WX    TMP DP  RH WIND       PRES   REMARKS
Burlington     CLEAR     24  17  74 S15       29.94F WCI  11
Cedar Rapids   CLEAR     22  17  81 SW13      29.87S WCI  10
Des Moines     MOCLDY    30  21  69 NW12      29.94R WCI  20
Kirksville     CLEAR     26  20  77 SW10      29.99R WCI  16
Ottumwa        CLOUDY    28  19  69 SW13      29.91F WCI  17
St Louis       CLEAR     25  17  72 SW8       30.13R WCI  16
$$


CITY           SKY/WX    TMP DP  RH WIND       PRES   REMARKS
Terre Haute    CLOUDY    23  16  74 S8        30.11F WCI  14
Evansville     CLEAR     20  16  84 SW7       30.21R WCI  11
Indianapolis   PTCLDY    20  15  81 S9        30.08F WCI   9
Lafayette      CLOUDY    21  16  81 SW7       30.06R WCI  12
Madison        CLOUDY    22  15  75 S7        29.84F WCI  13
Milwaukee      CLOUDY    23  15  71 SW10      29.88F WCI  12
$$






USA.gov is the U.S. government's official web portal to all federal, state and local government web resources and services.